Velovelo
Português Nederlands 日本語 中文
Español English čeština slovenčina
русский italiano polski norsk
français Deutsch svenska عربي
 
 vorige Seite
 einem Freund senden
 Um zu drucken
 ---> Les Copains 2009 : Résultats du 158 km

ClassDos Nom-Prénom ... Cat C.cTemps ....Dip
1 3 RACODON NICOLAS Z 1 4:22:04 OR
2 121 VINCENT FREDERIC Z 2 4:22:06 OR
3 1716 ARGANS PHILIPPE C 1 4:22:06 OR
4 124 LAPANDERIE GHYSLAIN D 1 4:42:06 OR
5 126 MARCON LAURENT D 2 4:46:03 OR
6 1705 GUIBERT AUGUSTIN C 2 4:47:57 OR
7 320 DUPUIS DIDIER F 1 4:48:07 OR
8 1114 MONTEIRO FREDERIC C 3 4:48:08 OR
9 81 VERDIER MARC F 2 4:49:17 OR
10 94 DECONIHOUT OLIVIER E 1 4:50:03 OR
11 369 BREMONT ARNAUD D 3 4:51:30 OR
12 72 CHAVET BELOT PATRICK E 2 4:51:36 OR
13 421 BUCHILLET JEAN PAUL F 3 4:51:36 OR
14 467 DAUBIGNE PASCAL E 3 4:51:47 OR
15 2 BERGERARD MICKAEL Z 3 4:52:17 OR
16 324 MICHEL STEPHANE D 4 4:53:09 OR
17 93 BATHIE DAVID E 4 4:53:12 OR
18 1678 CERVANTES JEAN CHRISTOPHE C 4 4:55:17 OR
19 130 REMY BERTRAND D 5 4:55:34 OR
20 327 CASSIN PATRICE D 6 4:56:11 OR
21 149 DOUARRE OLIVIER D 7 4:56:16 OR
22 541 GUENARD FRANCK E 5 4:56:30 OR
23 74 BEAUFILS CHRISTOPHE D 8 4:56:51 OR
24 1714 FULCRAND GUY H 1 4:57:25 OR
25 8 HILAIRE RAPHAËL D 9 4:57:56 OR
26 29 BOUCHERET ERIC F 4 5:02:03 OR
27 163 BLANCHET FRANCK D 10 5:02:04 OR
28 99 CABANTOUS PASCAL E 6 5:02:05 OR
29 158 MAS GUY G 1 5:02:05 OR
30 70 MACHENAUD JEAN CHRISTOPHE E 7 5:02:06 OR
31 542 LONCLE YANNICK F 5 5:02:07 OR
32 336 CELLIER JEAN PIERRE F 6 5:02:46 OR
33 136 PRIEUR YVES D 11 5:02:58 OR
34 544 BRETTES SEBASTIEN D 12 5:03:12 OR
35 89 CHARRIER MICHAEL D 13 5:03:14 OR
36 103 BORDAZ JEAN CLAUDE D 14 5:03:22 OR
37 1485 JARRY CLAUDE H 2 5:04:00 OR
38 57 CHIZAT MAURICE I 1 5:05:14 OR
39 359 AUGEREAU ERIC F 7 5:05:54 OR
40 779 HUMBERT ALAIN G 2 5:05:58 OR
41 556 BARTHELEMY DANIEL E 8 5:06:21 OR
42 1521 LEMAIRE FRANÇOIS D 15 5:06:24 OR
43 306 BESOMBES PHILIPPE F 8 5:06:37 OR
44 73 MAILLOT PIERRE F 9 5:07:56 OR
45 61 BOIVIN CHRISTOPHE E 9 5:08:20 OR
46 98 BORDERIE DANIEL G 3 5:08:26 OR
47 1486 RABY TONY D 16 5:08:47 OR
48 422 BOURCIER JEAN MICHEL E 10 5:08:49 OR
49 85 LHOPITEAU FRANCK D 17 5:08:53 OR
50 4 PERRIER LAURENT Z 4 5:09:35 OR
51 672 GREGOIRE LOIC D 18 5:09:38 OR
52 427 GAGNAIRE PATRICE D 19 5:10:08 OR
53 515 CHAMPALLE PASCAL F 10 5:10:21 OR
54 321 PUYDEBOIS SERGE H 3 5:10:26 OR
55 1073 LORGERON JACKY H 4 5:10:26 OR
56 1188 GIDEL SAMUEL C 5 5:10:30 OR
57 48 ENTREMONT JEAN FRANCOIS D 20 5:10:32 OR
58 322 MARTINS PASCAL D 21 5:10:51 OR
59 1121 COMMUNEAU LUDWIG D 22 5:10:54 OR
60 86 GILBARDIE PATRICK E 11 5:11:17 OR
61 51 NOURY DOMINIQUE G 4 5:11:40 OR
62 839 VALLIN THOMAS C 6 5:12:08 OR
63 286 JANY PIERRE HENRI E 12 5:12:18 OR
64 272 CARLE ERIC D 23 5:12:33 OR
65 466 AVERTY STEPHANE D 24 5:12:57 OR
66 1658 LAMOUROUX HERVÉ E 13 5:13:17 OR
67 840 VALLIN BENOIST D 25 5:13:18 OR
68 343 BURON MICHEL G 5 5:13:21 OR
69 1459 FIRMIN THIERRY E 14 5:13:21 OR
70 1457 BIZARD SEBASTIEN D 26 5:13:22 OR
71 1434 DEBARD DENIS E 15 5:13:23 OR
72 91 VEYRAC GERARD H 5 5:13:26 OR
73 1362 AUDOYE OLIVIER E 16 5:13:27 OR
74 525 BERGMANN PETTER E 17 5:13:31 OR
75 903 MACHU YVES F 11 5:13:39 OR
76 872 DAVID STEPHANE E 18 5:13:42 OR
77 179 GUIBOUX PATRICK E 19 5:13:42 OR
78 1420 CAPELLE LUC E 20 5:13:49 OR
79 167 MONJOFFRE ERIC G 6 5:14:29 OR
80 1125 DUCHIRON JEAN PAUL G 7 5:14:29 OR
81 411 VINCENT PASCAL E 21 5:15:13 OR
82 1422 GOUSSAULT FLORENT D 27 5:15:31 OR
83 1632 ROUSSEL BERNARD I 2 5:15:34 OR
84 13 ROLHION MARC ANTOINE I 3 5:15:35 OR
85 420 LAFOY DOMINIQUE E 22 5:15:40 OR
86 326 BECHAREL NICOLAS C 7 5:16:44 OR
87 723 MONTAUD JEROME D 28 5:16:47 OR
88 131 ALLAND DANIEL I 4 5:16:49 OR
89 1102 SERTHELON DAMIEN D 29 5:18:15 OR
90 360 VIVION JEAN MARIE F 12 5:18:21 OR
91 194 BALL TONY D 30 5:18:25 OR
92 1305 LAIBE CHRISTIAN F 13 5:18:41 OR
93 1421 HERNANDEZ JEAN PIERRE F 14 5:19:04 OR
94 178 BENOIST PHILIPPE D 31 5:19:06 OR
95 792 DREGAS VICTOR HENRI H 6 5:19:09 OR
96 366 AUBARD EMMANUEL D 32 5:19:21 OR
97 1123 BOUT BENOIT E 23 5:19:30 OR
98 1677 CHIZELLE YVES D 33 5:19:30 OR
99 882 LEHALLE HERVE E 24 5:19:33 OR
100 1451 BAJARD CHRISTIAN H 7 5:19:34 OR
101 1545 COAIL LOUIS H 8 5:19:34 OR
102 947 HERAIL THIERRY E 25 5:19:36 OR
103 1411 BARAIS ANTHONY C 8 5:19:36 OR
104 799 DELACOUX SEBASTIEN Z 5 5:19:37 OR
105 548 DEPLECHIN PHILIPPE F 15 5:19:42 OR
106 1820 ROUSSELIE FABRICE E 26 5:19:46 OR
107 252 LANDON YVES G 8 5:19:48 OR
108 1435 RONCHARD FRANCOIS F 16 5:19:52 OR
109 261 KRELEGER MARCEL G 9 5:19:53 OR
110 53 BRIOT JEAN PAUL F 17 5:20:15 OR
111 1472 BARDET PHILIPPE F 18 5:20:15 OR
112 540 MARTIN LAURENT E 27 5:21:33 OR
113 317 LAFFAYE BERNARD H 9 5:21:35 OR
114 79 AUBERGER JACKY I 5 5:21:49 OR
115 199 BAILLY JACQUES G 10 5:21:54 OR
116 1098 DESHOULIERES MICHEL H 10 5:22:08 OR
117 183 AMARTIN CHRISTIAN E 28 5:22:22 OR
118 555 PUICERCUS JOSE G 11 5:22:29 OR
119 1468 MERLE OLIVIER 2 E 29 5:22:51 OR
120 749 BROU DAMIEN Y 1 5:23:19 OR
121 1838 CHARPENTIER ERIC D 34 5:23:25 OR
122 914 COSTE PIERRE F 19 5:23:28 OR
123 1574 CHAUTEMPS ERIC D 35 5:23:33 OR
124 718 LAMALLE PHILIPPE E 30 5:23:45 OR
125 551 LE HEC PASCAL E 31 5:23:45 OR
126 1057 FABER LIONEL D 36 5:23:55 OR
127 495 GRANET JEAN CHARLES E 32 5:24:19 OR
128 1460 SARTRAND JEAN PASCAL G 12 5:24:21 OR
129 60 GIRIN BERNARD G 13 5:24:23 OR
130 552 BOURREAU PASCAL E 33 5:24:24 OR
131 547 TALPAERT CEDRIC C 9 5:24:24 OR
132 597 SANTIA ANDREWS ERIC F 20 5:24:27 OR
133 570 LAGACHE EMMANUEL E 34 5:24:40 OR
134 7 RACODON ERIC C 10 5:24:56 OR
135 380 BORDIER JOEL H 11 5:25:13 OR
136 418 NARBONNE DIDIER F 21 5:25:21 OR
137 1412 SEVENNEC LOIC D 37 5:25:38 OR
138 1221 BRUNET FRANÇOIS F 22 5:25:39 OR
139 15 GOY JEAN MICHEL H 12 5:25:40 OR
140 999 MICHALON HERVE D 38 5:25:43 OR
141 1568 DE CRÉCY PHILIPPE D 39 5:25:49 OR
142 1290 FAVRE FRANCIS I 6 5:25:51 OR
143 1822 DUVERT JEAN MICHEL G 14 5:25:54 OR
144 506 CORTET STEPHANE D 40 5:26:34 OR
145 955 FARRUCIO JEAN PIERRE G 15 5:26:38 OR
146 972 PARVERY PHILIPPE E 35 5:27:01 OR
147 1293 MORISSET GILLES G 16 5:27:03 OR
148 1659 REBOUL VINCENT E 36 5:27:06 OR
149 1872 TAYLOR BARRY D 41 5:27:12 OR
150 512 PIGANIOL MARC F 23 5:27:14 OR
151 1518 GUIBOUT CHRISTOPHE D 42 5:28:13 OR
152 1307 BIBIE ROBERT H 13 5:28:51 OR
153 175 BLANCONNIER CHRISTOPHE D 43 5:28:55 OR
154 358 DUPONT BRUNO F 24 5:28:56 OR
155 936 LEGRET PHILIPPE E 37 5:29:01 OR
156 110 SAHUC BERNARD G 17 5:29:03 OR
157 122 GAILLARD ALAIN E 38 5:29:27 OR
158 704 BALICHARD ERIC F 25 5:29:30 OR
159 874 CHABRIER JEAN LUC H 14 5:29:31 OR
160 1866 SALLERON LAURENT E 39 5:29:35 OR
161 687 WIART ANDRE I 7 5:29:36 OR
162 524 CHAVANON JACQUES I 8 5:29:43 OR
163 390 ROMAIN PHILIPPE D 44 5:29:50 OR
164 554 SONZOGNI BRUNO E 40 5:29:57 OR
165 1895 HEBBE SYLVAIN D 45 5:30:31 OR
166 1592 CROZIER DANIEL F 26 5:30:35 OR
167 816 RASSET STEPHANE E 41 5:30:36 OR
168 328 NANO ASCIONE G 18 5:30:37 OR
169 984 CLEMENT MARC E 42 5:31:05 OR
170 39 DUCHAMP ALAIN G 19 5:31:28 OR
171 1471 DEFOIS JEAN LOUIS G 20 5:31:35 OR
172 1003 GOSSEAUME PASCAL F 27 5:31:49 OR
173 491 GRAND GILLES E 43 5:32:03 OR
174 902 LALLIER FRANCOIS H 15 5:32:16 OR
175 1249 VARENNE JEAN LOUIS E 44 5:32:25 OR
176 1071 DE BATTISTA HERVÉ E 45 5:32:31 OR
177 851 DULERY SYLVAIN D 46 5:32:32 OR
178 1265 REGNY ANDRÉ H 16 5:32:32 OR
179 433 GRIMAULT FRANCIS F 28 5:32:38 OR
180 1167 GREGOIRE THIERRY E 46 5:33:06 OR
181 1059 CROZAT PASCAL E 47 5:33:08 OR
182 143 DORNIER CLAUDE H 17 5:33:10 OR
183 959 HULOT THIERRY F 29 5:33:16 OR
184 65 MALASSENET ALAIN G 21 5:33:17 OR
185 1530 GELY FRANCK D 47 5:33:50 OR
186 1200 ROBEQUAIN BENOIT D 48 5:33:56 OR
187 1216 MANTIONE LEONARD F 30 5:34:13 OR
188 550 WANE ABDOUL E 48 5:34:15 OR
189 247 CHAPUIS SEBASTIEN D 49 5:34:30 OR
190 47 LETARTRE DOMINIQUE H 18 5:34:34 OR
191 867 PIC DANIEL D 50 5:34:44 OR
192 868 CAMARENA PHILIPPE D 51 5:34:48 OR
193 1535 RAIMBEAUX CLAUDE G 22 5:34:48 OR
194 78 TARDIVAT JEAN PAUL H 19 5:34:49 OR
195 614 CHATELAS YANNICK D 52 5:34:51 OR
196 1437 COSSOUL JEAN PIERRE G 23 5:34:54 OR
197 1666 VERRON BRUNO F 31 5:34:58 OR
198 1164 SAGOT MICHEL I 9 5:35:10 OR
199 564 SERRANO CHRISTOPHE E 49 5:35:23 OR
200 75 GIDEL GUY G 24 5:35:34 OR
201 1845 PEYRARD LIONEL D 53 5:36:03 ARGENT
202 927 PERRONIN FRANCOIS E 50 5:36:16 OR
203 118 ZINET MATHIEU C 11 5:36:26 ARGENT
204 1586 DE OLIVEIRA SOUSA FERNANDO F 32 5:36:32 OR
205 1488 MASSARD BERTRAND D 54 5:36:32 ARGENT
206 1865 WEBER PASCAL G 25 5:36:39 OR
207 1870 SMITH SUSAN A 1 5:36:41 OR
208 532 LUCAND BRUNO F 33 5:36:43 OR
209 30 JANURA JEAN H 20 5:36:54 OR
210 357 BEL PATRICK E 51 5:36:57 OR
211 1278 FOURNIER GERARD G 26 5:37:06 OR
212 740 ROMBAUT JEAN PIERRE I 10 5:37:09 OR
213 410 BRACHET FREDERIC D 55 5:37:13 ARGENT
214 1443 CHAPTAL ERIC E 52 5:37:15 OR
215 1178 BONNARD DIDIER F 34 5:37:16 OR
216 1470 COURTET PATRICK D 56 5:37:18 ARGENT
217 1215 BADJI SAID H 21 5:37:19 OR
218 553 BEAUGENDRE PIERRE H 22 5:37:20 OR
219 873 BODIN IVAN D 57 5:37:46 ARGENT
220 1213 FORESTIER HERVE F 35 5:37:48 OR
221 92 PICHAND YVES I 11 5:38:08 OR
222 172 GIBSON PAUL E 53 5:38:44 OR
223 923 DUNANT PIERRE F 36 5:39:08 OR
224 162 BIAUNIER JEAN MARIE F 37 5:39:12 OR
225 370 DELACOUX ROLAND H 23 5:39:16 OR
226 96 JAMMET CLAUDE H 24 5:39:17 OR
227 1084 FOYATIER JEAN LUC F 38 5:39:22 OR
228 170 POISSONNET JAMES I 12 5:39:37 OR
229 665 GRANET LIONEL D 58 5:40:11 ARGENT
230 575 GUIRAND HERVE E 54 5:40:13 OR
231 1830 PARIS JEAN PAUL G 27 5:40:20 OR
232 407 BESSON ROBERT H 25 5:40:35 OR
233 1373 DAUBISSE SAMUEL D 59 5:40:37 ARGENT
234 1879 PROPAGE NICOLAS C 12 5:41:26 ARGENT
235 1320 BERTRAND JEAN PAUL G 28 5:41:30 OR
236 774 COLLY FABRICE D 60 5:41:32 ARGENT
237 783 DELORME PAUL I 13 5:41:35 OR
238 310 GRILLON FABRICE H 26 5:41:38 OR
239 258 LORY MICHEL G 29 5:41:40 OR
240 1469 DELHERME PASCAL D 61 5:41:54 ARGENT
241 1063 ROUSSEL NICOLAS E 55 5:42:03 OR
242 603 LECOUR BERNARD F 39 5:42:05 OR
243 736 COTTANCIN PHILIPPE G 30 5:42:11 OR
244 1257 BIZIERES MICHEL I 14 5:42:21 OR
245 1263 RIBEROT CHRISTIAN I 15 5:42:24 OR
246 485 CANARD CHRISTIAN H 27 5:42:26 OR
247 303 GAULTIER SERGE H 28 5:43:22 OR
248 302 GAULTIER YANNICK Z 6 5:43:22 ARGENT
249 125 SANTER ANNE PAULINE A 2 5:43:23 OR
250 353 PLANCHON THIERRY D 62 5:43:49 ARGENT
251 724 MONTAUD DANIEL H 29 5:43:58 OR
252 1368 RIGOREAU DAVID D 63 5:43:59 ARGENT
253 1032 SEGARRA JEAN PAUL I 16 5:44:02 OR
254 765 DELESCLUZE YVES G 31 5:45:28 OR
255 31 BOURRIOT JEROME D 64 5:45:43 ARGENT
256 1880 CUNEY YGOR G 32 5:45:44 OR
257 164 MOUTON JEAN FRANCOIS E 56 5:45:46 ARGENT
258 883 SALABERT LAURENT D 65 5:46:00 ARGENT
259 1196 ABADIE CHRISTOPHE E 57 5:46:04 ARGENT
260 398 GROB GERARD F 40 5:46:16 OR
261 986 TRICART PHILIPPE F 41 5:47:12 OR
262 305 WOHL JEAN CLAUDE I 17 5:47:16 OR
263 1810 LEBRAS ALAIN H 30 5:47:52 OR
264 1095 VINCENT HERVE E 58 5:47:53 ARGENT
265 1645 BIJLEVELD JEROEN E 59 5:48:02 ARGENT
266 350 BERTHELOT JOEL G 33 5:49:01 OR
267 714 VILLETTE HERVE G 34 5:49:02 OR
268 277 MACAGNINO PATRICK F 42 5:49:06 OR
269 1707 DUCLOS YVES E 60 5:49:50 ARGENT
270 1644 NELEMANN JACCO D 66 5:49:57 ARGENT
271 805 RIBOUD IVAN G 35 5:49:57 OR
272 1409 MAURIOS JEAN JACQUES H 31 5:49:57 OR
273 1375 MAGNE PIERRE H 32 5:50:22 OR
274 1828 ROSIN FREDERIC D 67 5:50:43 ARGENT
275 662 JARRIGE JEAN CLAUDE F 43 5:50:49 ARGENT
276 1449 FRONTEAU JEAN MARC F 44 5:51:31 ARGENT
277 1452 DAMON PHILIPPE F 45 5:51:44 ARGENT
278 392 BELLIO JEAN FRANCOIS D 68 5:51:51 ARGENT
279 312 BOISSEUIL ROLAND H 33 5:51:53 OR
280 1337 VENTENAT DAVID D 69 5:53:10 ARGENT
281 1322 ADANT PIERRE D 70 5:53:12 ARGENT
282 309 GILBARDIE FABIEN D 71 5:53:27 ARGENT
283 982 PRUD’HOMME THIERRY E 61 5:53:32 ARGENT
284 492 COPIE PHILIPPE E 62 5:53:40 ARGENT
285 1033 BAZEILLE LIONEL H 34 5:53:42 OR
286 1034 CERINI JEROME D 72 5:53:42 ARGENT
287 52 GOURBEYRE GEORGES I 18 5:53:42 OR
288 886 LAMIRE GERARD H 35 5:53:49 OR
289 1439 LEJEUNE REGIS H 36 5:53:51 OR
290 632 PEGON GERALD D 73 5:53:51 ARGENT
291 766 CHEVALIER CHRISTIAN I 19 5:53:55 OR
292 1067 MONNERY JEAN PAUL F 46 5:53:57 ARGENT
293 1192 ROUGERIE ALAIN I 20 5:53:57 OR
294 402 MAVIER JEAN LUC G 36 5:53:58 OR
295 55 BETHISY JEAN CLAUDE H 37 5:54:04 OR
296 1151 MAMARD SERGE D 74 5:54:07 ARGENT
297 1024 JAILLET GEORGES G 37 5:54:10 OR
298 1166 MECHIN JEAN LUC E 63 5:54:11 ARGENT
299 1438 LEMONON BERNARD I 21 5:54:12 OR
300 1556 ALBERT MICHEL G 38 5:54:14 OR
301 1466 DESFARGES PATRICK G 39 5:54:19 OR
302 1093 SEGUIN ALAIN H 38 5:54:31 OR
303 1356 MEILLE BRUNO F 47 5:54:33 ARGENT
304 1301 FRESNAIS JOSÉ F 48 5:54:51 ARGENT
305 1026 LEMARQUAND EMMANUEL F 49 5:54:53 ARGENT
306 1675 JAUDAUX ERIC F 50 5:55:12 ARGENT
307 1326 FILLION MATHIEU C 13 5:55:16 ARGENT
308 1308 VERNADA YVES F 51 5:55:16 ARGENT
309 1826 GAY ALAIN G 40 5:55:16 ARGENT
310 1372 BLANC STEPHANE E 64 5:55:20 ARGENT
311 907 CHATELAS CHRISTIAN H 39 5:55:26 OR
312 316 VILLESANGE JEAN PIERRE F 52 5:55:29 ARGENT
313 1897 MAGE OLIVIER E 65 5:55:35 ARGENT
314 1718 JACQUET LOIC D 75 5:55:35 ARGENT
315 378 LAHAIE JEAN JACQUES G 41 5:55:38 ARGENT
316 173 DEMEULE THIERRY F 53 5:55:42 ARGENT
317 180 BEYTOUT BERNARD D 76 5:55:43 ARGENT
318 1638 ROSELIER JACKY H 40 5:55:49 OR
319 1719 ROBERT BAPTISTE C 14 5:56:07 ARGENT
320 1696 NEDELEC PATRICK G 42 5:56:24 ARGENT
321 1688 VEUILLET JACQUES I 22 5:56:31 OR
322 393 MINIER JACKY G 43 5:56:38 ARGENT
323 1019 NICOLAS JEAN PAUL I 23 5:56:43 OR
324 1901 MARTINEZ JACKY H 41 5:56:46 OR
325 1044 DANEAU CLAUDE F 54 5:56:54 ARGENT
326 557 THULL MARCEL H 42 5:56:57 OR
327 920 MERGNAT GILLES F 55 5:57:19 ARGENT
328 767 VEYSSIERE DIDIER D 77 5:57:30 ARGENT
329 1506 JANY CHRISTIAN E 66 5:57:35 ARGENT
330 1127 MAILLET THIERRY E 67 5:57:36 ARGENT
331 856 ALLEAUME PATRICE G 44 5:57:40 ARGENT
332 634 PLEAU JOEL I 24 5:58:22 OR
333 1138 SOTTON GERARD G 45 5:58:28 ARGENT
334 453 LOPES ANTONIO F 56 5:58:35 ARGENT
335 1183 TOURBIER ROMAIN E 68 5:58:36 ARGENT
336 864 PUPIN ALAIN F 57 5:58:38 ARGENT
337 1561 TEUMA ANTOINE D 78 5:58:42 ARGENT
338 1294 SEVE MAX G 46 5:58:53 ARGENT
339 1562 SIMONOT VINCENT E 69 5:59:04 ARGENT
340 1446 CHAPUIS GERARD 2 F 58 5:59:09 ARGENT
341 750 THOMASSERY BERNARD G 47 5:59:24 ARGENT
342 483 AUSSOURD DAVID D 79 5:59:43 ARGENT
343 1227 RAOUL JEAN PIERRE F 59 5:59:44 ARGENT
344 1061 VISINTIN LAURENT E 70 6:00:36 ARGENT
345 319 JUMEAU MICHEL I 25 6:00:37 OR
346 190 BONHEUR PATRICK F 60 6:00:44 ARGENT
347 855 DURAME ERIC E 71 6:00:50 ARGENT
348 1649 DE MARET TAK VICTOR D 80 6:00:50 ARGENT
349 857 LEROUX OLIVIER E 72 6:00:50 ARGENT
350 862 JAMOT OLIVIER E 73 6:00:54 ARGENT
351 711 BOUCHER ERIC G 48 6:00:54 ARGENT
352 1039 DAVELAAR FRANS D 81 6:01:01 ARGENT
353 636 MURITH JACKY G 49 6:01:36 ARGENT
354 205 HERMET GERARD H 43 6:01:37 OR
355 1297 CHIRAT ALAIN F 61 6:01:40 ARGENT
356 1613 MARTIN FREDERIC E 74 6:01:42 ARGENT
357 1553 CONDETTE GUY I 26 6:01:43 OR
358 185 BROSSY MICHEL H 44 6:01:49 OR
359 861 TRUFFAUT STEPHANE E 75 6:02:02 ARGENT
360 1163 BOIRAT ROGER H 45 6:02:09 OR
361 1262 FAYE JEAN PHILIPPE E 76 6:02:16 ARGENT
362 865 LECLUZE GILDAS C 15 6:02:16 BRONZE
363 313 DUBOUCHAUD GUY H 46 6:02:47 OR
364 1146 BERTHELOT DOMINIQUE G 50 6:02:49 ARGENT
365 1172 BOUTENEIGRE PHILIPPE E 77 6:03:01 ARGENT
366 1330 LEBAYLE PHILIPPE E 78 6:03:03 ARGENT
367 151 SERINDAT BERNARD H 47 6:03:04 OR
368 1298 KURAST XAVIER E 79 6:03:06 ARGENT
369 1256 RAYBOIS JEAN CLAUDE I 27 6:03:14 OR
370 1017 BANCE DIMITRI D 82 6:03:17 ARGENT
371 968 BRUN YVES D 83 6:03:29 ARGENT
372 1367 BEZARD PATRICK F 62 6:03:43 ARGENT
373 608 COUDERT SERGE G 51 6:03:50 ARGENT
374 1349 BATHIE SYLVAIN D 84 6:03:52 ARGENT
375 1621 BOURBON JEAN MICHEL G 52 6:03:53 ARGENT
376 738 HUVET JEAN YVES G 53 6:03:55 ARGENT
377 1287 CHATELAS MICHEL H 48 6:04:06 OR
378 307 PELLETIER PATRICE F 63 6:04:10 ARGENT
379 1722 CHAUVEL FERDINAND H 49 6:04:11 OR
380 1596 DECHAVANNE YVES H 50 6:04:16 OR
381 1199 DESCHAMPS GERARD I 28 6:04:21 OR
382 776 ANTOINE GREGORY D 85 6:05:14 ARGENT
383 791 COURTINAT JEAN FRANÇOIS E 80 6:05:46 ARGENT
384 908 RAULT CHRISTOPHE E 81 6:05:47 ARGENT
385 717 FARGEIX JEAN I 29 6:05:48 OR
386 1104 CHOUARCHE JEAN CLAUDE I 30 6:06:01 OR
387 1542 FRESSE BENOIT D 86 6:06:03 ARGENT
388 285 METAIS PHILIPPE F 64 6:06:04 ARGENT
389 1480 CARTIER ERIC H 51 6:06:13 ARGENT
390 1130 MARCHAL JEAN CHRISTOPHE F 65 6:06:39 ARGENT
391 282 BROUILLER MARCEL F 66 6:06:45 ARGENT
392 1076 BARAT EMILE I 31 6:06:48 OR
393 1511 VINCENT MARC I 32 6:06:52 OR
394 1236 GUYONNET PAUL H 52 6:06:54 ARGENT
395 1473 CRESSON JEAN MICHEL H 53 6:07:02 ARGENT
396 426 PAGES FRANÇOIS E 82 6:07:08 ARGENT
397 682 CHASTEL ALAIN I 33 6:07:14 OR
398 1054 GENIEZ BERNARD G 54 6:07:16 ARGENT
399 1267 BLANC MICHEL 2 F 67 6:07:37 ARGENT
400 590 PAGES ERIC F 68 6:07:42 ARGENT
401 876 VILLACAMPA NICOLAS F 69 6:08:13 ARGENT
402 1143 SENANT ANTOINE H 54 6:08:13 ARGENT
403 314 GIRAUD GILLES I 34 6:08:41 OR
404 642 MATHON JEAN LOUIS F 70 6:08:41 ARGENT
405 707 FOURETS YVES I 35 6:08:45 OR
406 1660 TALABARDON HERVÉ I 36 6:08:45 OR
407 1525 ROBERT PATRICK F 71 6:08:46 ARGENT
408 1242 KHAMALLAH BEIDOUI D 87 6:08:47 ARGENT
409 339 GEAY RENE H 55 6:08:52 ARGENT
410 1131 SYLVESTRE NICOLAS D 88 6:09:02 ARGENT
411 1573 DREVON BERNARD H 56 6:09:04 ARGENT
412 713 RAVAGNI LIONEL E 83 6:09:05 ARGENT
413 1843 COUDERT PIERRE F 72 6:09:08 ARGENT
414 1844 BOURG ANDRE F 73 6:09:27 ARGENT
415 430 VIGNAUD DOMINIQUE F 74 6:09:29 ARGENT
416 468 PRAVASINI JOCELYN E 84 6:09:38 ARGENT
417 1693 DE ROOVER PASCAL F 75 6:09:39 ARGENT
418 900 BRENIER MICHEL H 57 6:09:40 ARGENT
419 1602 PEYRAS PHILIPPE D 89 6:10:05 BRONZE
420 979 PAPOT LIBERAL JEAN MARC G 55 6:10:06 ARGENT
421 616 VAPPEREAU MAXIME C 16 6:10:07 BRONZE
422 539 PENVERN CLAUDE G 56 6:10:24 ARGENT
423 195 DUMAS YVES H 58 6:10:38 ARGENT
424 1383 HOSPITAL CHRISTIAN F 76 6:10:55 ARGENT
425 262 DALLOT DANIEL G 57 6:11:14 ARGENT
426 786 ADELINE BRUNO D 90 6:11:18 BRONZE
427 586 NOUHAUT CLAUDE G 58 6:11:19 ARGENT
428 596 DELMAS PHILIPPE F 77 6:11:23 ARGENT
429 685 MICHAUD ALAIN I 37 6:11:26 OR
430 817 VATINEL MICHEL I 38 6:11:40 OR
431 813 COLIN PATRICK G 59 6:11:52 ARGENT
432 171 SUAREZ BRUNO D 91 6:11:52 BRONZE
433 1829 LEVEQUE SEBASTIEN D 92 6:11:58 BRONZE
434 1557 AYMARD JACQUES I 39 6:12:00 OR
435 1629 BRUNEL PIERRE C 17 6:12:01 BRONZE
436 161 BOURDETTE JEAN MARC E 85 6:12:02 ARGENT
437 1015 DUPUIS ALAIN E 86 6:12:05 ARGENT
438 853 SCHMIDT MAX F 78 6:12:05 ARGENT
439 325 CHAMBON THIERRY F 79 6:12:13 ARGENT
440 446 GRANGEON FREDERIC D 93 6:12:32 BRONZE
441 382 LE LIEVRE PHILIPPE H 59 6:12:49 ARGENT
442 1105 PANCIC LAURENT D 94 6:13:01 BRONZE
443 743 DALMAIS GEORGES F 80 6:13:09 ARGENT
444 640 TOURNEREAU CLAUDE H 60 6:13:18 ARGENT
445 284 SURREL JEAN MICHEL D 95 6:13:19 BRONZE
446 1140 HERVE PASCAL E 87 6:13:40 ARGENT
447 429 PACHOT SYLVAIN F 81 6:13:45 ARGENT
448 1852 BLANQUART BERTRAND D 96 6:13:47 BRONZE
449 716 PINCIVY THIERRY F 82 6:14:03 ARGENT
450 808 FAJARDIE THIERRY F 83 6:14:11 ARGENT
451 630 CHAMPION GREGORY D 97 6:14:13 BRONZE
452 43 MARTINEZ JEAN MARIE F 84 6:14:13 ARGENT
453 777 LAURIN ALAIN H 61 6:14:13 ARGENT
454 213 PUPIER ANDRE H 62 6:14:29 ARGENT
455 181 PRIOU XAVIER D 98 6:14:45 BRONZE
456 1886 DAUMAS PASCAL C 18 6:15:27 BRONZE
457 507 CHARLOIS ALAIN H 63 6:15:29 ARGENT
458 758 CHAUVETJEAN YVES H 64 6:15:30 ARGENT
459 1136 FLOURET MICHEL H 65 6:16:30 ARGENT
460 375 RANOUX ANDRE I 40 6:16:37 ARGENT
461 629 DA SILVA FERNANDO F 85 6:16:38 ARGENT
462 588 LANGLADE ROGER H 66 6:16:41 ARGENT
463 365 DESCHAMPS PASCAL G 60 6:16:43 ARGENT
464 809 BRODU MATHIEU C 19 6:17:14 BRONZE
465 860 MESNIL ALAIN G 61 6:17:24 ARGENT
466 976 POTIER JEAN CLAUDE F 86 6:17:53 ARGENT
467 612 CAUCHOIS MARTIAL G 62 6:17:57 ARGENT
468 960 BONNEFOY HERVE G 63 6:18:10 ARGENT
469 184 SAILLENFEST THIERRY E 88 6:18:19 ARGENT
470 1514 PENNARUN YVAN E 89 6:18:25 ARGENT
471 788 DOUCHET JOEL H 67 6:18:33 ARGENT
472 255 NICOLAS JEAN CLAUDE H 68 6:18:41 ARGENT
473 1390 MARLIN JEAN FRANCOIS I 41 6:18:44 ARGENT
474 32 CHARRETON PIERRE H 69 6:18:44 ARGENT
475 812 LESEIGNEUR JOEL F 87 6:19:21 ARGENT
476 132 BARBIER DIDIER G 64 6:19:52 ARGENT
477 617 RANZA DANIEL I 42 6:20:25 ARGENT
478 1037 MOUET GERARD I 43 6:20:25 ARGENT
479 594 PILAT ALAIN G 65 6:20:29 ARGENT
480 1848 DURIEUX JOEL G 66 6:20:31 ARGENT
481 1303 RANSON ISABELLE B 1 6:20:48 OR
482 1149 SABLAYROLLES CEDRIC D 99 6:20:49 BRONZE
483 166 MONJOT HENRI I 44 6:20:50 ARGENT
484 191 DELUZARCHE MICHEL H 70 6:20:53 ARGENT
485 689 TIBLE FABRICE E 90 6:20:57 BRONZE
486 1882 PAULIEN BRUNO F 88 6:21:19 ARGENT
487 1801 MARTIN MICHEL 2 G 67 6:21:46 ARGENT
488 1842 MONEDIERE ERIC F 89 6:21:47 ARGENT
489 168 FILLOUX ALAIN H 71 6:21:49 ARGENT
490 1529 SEGUES ALEXANDRE D 100 6:21:52 BRONZE
491 1888 BARRALON MICHEL F 90 6:21:52 ARGENT
492 761 GENESTE JEAN LOUIS E 91 6:21:58 BRONZE
493 526 IZQUIERDO JOSE G 68 6:22:00 ARGENT
494 1461 PEGEON GUY I 45 6:22:03 ARGENT
495 804 BUSATO JEAN MARIE D 101 6:22:14 BRONZE
496 1877 GUERIN THOMAS C 20 6:23:13 BRONZE
497 244 ANDRE JACQUES I 46 6:23:30 ARGENT
498 1671 LIOGIER CLAUDE H 72 6:23:46 ARGENT
499 1650 BOUSQUETLAURENT D 102 6:24:19 BRONZE
500 423 DURAND THIERRY F 91 6:24:45 ARGENT
501 1220 DURAND DANIEL 2 F 92 6:24:47 ARGENT
502 1280 BALASAKIS DIDIER H 73 6:24:48 ARGENT
503 498 PICHERIT JEAN CLAUDE I 47 6:24:50 ARGENT
504 1069 PAUTHIER GERARD H 74 6:24:54 ARGENT
505 1025 NOAILLY ROGER G 69 6:25:22 ARGENT
506 1306 MARTY CHRISTIAN F 93 6:25:25 ARGENT
507 1045 KIENZLER THIERRY E 92 6:25:40 BRONZE
508 308 AUPETIT ALAIN H 75 6:25:49 ARGENT
509 1345 FANGET RENE F 94 6:26:02 ARGENT
510 1053 BRUNON DOMINIQUE B 2 6:26:02 OR
511 260 GUILLAUMIE YVES I 48 6:26:02 ARGENT
512 725 DESSEREY JOCELYNE B 3 6:26:35 OR
513 1444 FAURE JEAN LOUIS G 70 6:26:50 ARGENT
514 1827 BERDOLLT JEAN FRANÇOIS F 95 6:27:12 ARGENT
515 1187 SAGNOL MARC E 93 6:27:16 BRONZE
516 545 PLECHAT JEAN FRANCOIS G 71 6:27:23 ARGENT
517 1077 BEAUDOIN MICHEL G 72 6:27:32 ARGENT
518 1484 LENOIR CHRISTIAN G 73 6:27:32 ARGENT
519 406 DARTHOS BRUNO G 74 6:27:33 ARGENT
520 1195 MOULIN MAURICE H 76 6:27:36 ARGENT
521 1520 BOURGEOIS DENIS G 75 6:27:44 ARGENT
522 848 ANDREATTA MICHEL G 76 6:27:46 ARGENT
523 508 CHAMPARNAUD JEAN CLAUDE I 49 6:28:02 ARGENT
524 739 CAMPEOTTO ERIC F 96 6:28:03 ARGENT
525 1458 ALBRAND MAURICE H 77 6:28:19 ARGENT
526 646 DESSAGNE ROBERT I 50 6:28:43 ARGENT
527 1281 GUCHET ROGER G 77 6:29:15 ARGENT
528 253 JEANJEAN DANIEL H 78 6:29:23 ARGENT
529 781 DEMARET ERIC F 97 6:29:27 ARGENT
530 1388 GRANDEMANGE SERGE G 78 6:29:28 ARGENT
531 628 CANTON MICHEL H 79 6:29:32 ARGENT
532 1487 PELISSOU PATRICK G 79 6:29:33 ARGENT
533 942 BESSET JEAN SEBASTIEN E 94 6:30:32 BRONZE
534 1478 GENEVEE FREDERIC C 21 6:30:51 BRONZE
535 49 JAULNEAU BERTRAND D 103 6:31:09 BRONZE
536 578 TIBLE MICHEL I 51 6:31:11 ARGENT
537 623 TUTIN JEAN CLAUDE G 80 6:31:13 ARGENT
538 670 ROMELLI DIDIER H 80 6:31:34 ARGENT
539 1171 MARION CHRISTIAN G 81 6:31:59 ARGENT
540 408 DUTILLEUL GONZAGUE F 98 6:32:14 BRONZE
541 1670 BRANDSE FRANK H 81 6:32:28 ARGENT
542 1453 DE FRAMOND YANN E 95 6:32:29 BRONZE
543 1391 MALARTRE SYLVAIN C 22 6:32:38 BRONZE
544 852 THUILLIER SERGE G 82 6:32:40 ARGENT
545 1609 TOURNIER BERNARD G 83 6:32:47 ARGENT
546 338 PORCHERET DANIEL G 84 6:32:48 ARGENT
547 1655 PROVOST JEAN PIERRE F 99 6:32:51 BRONZE
548 1721 SOUTRENON MICHEL I 52 6:33:01 ARGENT
549 1849 THOMAS HENRI G 85 6:33:02 ARGENT
550 1165 LEBRUN PIERRE G 86 6:33:03 ARGENT
551 1038 LESAGE LUDOVIC F 100 6:33:05 BRONZE
552 1162 LEMARIE JOEL G 87 6:33:52 ARGENT
553 669 BEDAGUE EMMANUEL E 96 6:34:10 BRONZE
554 1088 PERILLAUD XAVIER D 104 6:34:12 BRONZE
555 399 PALVADEAU JEAN PIERRE I 53 6:34:16 ARGENT
556 1219 SOULIER JEROME D 105 6:34:17 BRONZE
557 884 PETIT CECILE B 4 6:34:20 OR
558 1834 CHAUDIER BERNARD I 54 6:34:27 ARGENT
559 461 COLSON THIERRY F 101 6:34:34 BRONZE
560 1238 DUMAS DAVID D 106 6:34:37 BRONZE
561 1179 PEREZ JEAN PIERRE E 97 6:34:38 BRONZE
562 819 LEVESQUE LUCIEN I 55 6:34:41 ARGENT
563 1538 ARGAUD PIERRE G 88 6:35:12 ARGENT
564 1832 BESQUEUT SEBASTIEN Z 7 6:35:18 BRONZE
565 1833 THOMASSERY LAURIE ANNE A 3 6:35:19 ARGENT
566 1517 BESQUEUT JEAN LUC G 89 6:35:20 ARGENT
567 1646 HOOIJSCHUUR ERIC E 98 6:36:02 BRONZE
568 1426 TALABOT ROMAIN I 56 6:36:24 ARGENT
569 538 CORTIAL MICHEL H 82 6:36:37 ARGENT
570 176 BLANCONNIER GERARD H 83 6:37:06 ARGENT
571 1819 DUMEYNIE ALAIN G 90 6:37:08 ARGENT
572 593 BENEVENTI DOMINIQUE G 91 6:37:22 ARGENT
573 1134 SUCAUD JEAN CLAUDE G 92 6:37:28 ARGENT
574 394 HOUART BERNARD H 84 6:37:30 ARGENT
575 1706 VALOUR JEAN PAUL G 93 6:37:36 ARGENT
576 1685 PALASSE SERGE G 94 6:37:40 ARGENT
577 243 BOITEUX DOMINIQUE F 102 6:38:32 BRONZE
578 1191 GESSIER ALAIN G 95 6:38:59 ARGENT
579 368 PETITJEAN PIERRE G 96 6:39:37 ARGENT
580 772 RODRIGUES ROMEO D 107 6:40:12 BRONZE
581 691 DUFAILLY JEAN PIERRE I 57 6:40:34 ARGENT
582 1894 GUEVILLE ANDRÉ H 85 6:40:36 ARGENT
583 445 GABRIEL REMI D 108 6:40:37 BRONZE
584 1027 FAYE GUY H 86 6:41:51 ARGENT
585 1378 ROBERT JEAN MICHEL Y 2 6:41:56 ARGENT
586 1508 PERCHOUX JEAN I 58 6:42:00 ARGENT
587 1180 TARDIVEAU DANIEL F 103 6:42:02 BRONZE
588 957 BERAUD TOM C 23 6:42:03 BRONZE
589 1467 DEBILLY ARNAUD C 24 6:42:04 BRONZE
590 1464 MASSON BERNARD F 104 6:42:07 BRONZE
591 1698 PAVAILLER PIERRE I 59 6:42:08 ARGENT
592 1254 FLAVIGNARD BERNARD H 87 6:42:13 ARGENT
593 1086 SANANES GUY G 97 6:42:14 BRONZE
594 1668 GIDON ALAIN E 99 6:43:19 BRONZE
595 1673 MICHEL JEAN BERNARD H 88 6:43:28 ARGENT
596 558 LANGEHEGERMANN NICO I 60 6:44:04 ARGENT
597 1682 BODAS BERNARD H 89 6:44:12 ARGENT
598 1321 VALLET MARIE HELENE B 5 6:44:25 ARGENT
599 581 PRADEAU STEPHANE F 105 6:45:26 BRONZE
600 759 CHRETIEN BERNARD G 98 6:45:58 BRONZE
601 582 FEYFANT YVES H 90 6:46:34 ARGENT
602 1174 TRANCHAND JEAN CLAUDE F 106 6:46:35 BRONZE
603 1176 TOMAS JEAN PAUL E 100 6:46:37 BRONZE
604 1175 MYE ALEXANDRE D 109 6:46:37 BRONZE
605 437 ORIOL MICHEL H 91 6:46:37 ARGENT
606 476 BATISSE BRUNO D 110 6:47:01 BRONZE
607 475 BLAY FABRICE D 111 6:47:03 BRONZE
608 331 LEPOT PASCAL G 99 6:47:29 BRONZE
609 1295 BLANC JEAN CLAUDE H 92 6:47:36 ARGENT
610 859 CAUMONT ALAIN F 107 6:47:39 BRONZE
611 1324 CHANON HENRI F 108 6:47:45 BRONZE
612 1018 CHOUQUAIS PATRICK G 100 6:47:52 BRONZE
613 1139 RECIPON RAYMOND G 101 6:49:30 BRONZE
614 1091 COCLET MARC I 61 6:49:56 ARGENT
615 1580 JANDEAUX PIERRE F 109 6:50:00 BRONZE
616 1364 VILLARD FRANCK I 62 6:50:02 ARGENT
617 626 OLLAGNIER FRANCK E 101 6:50:51 BRONZE
618 1462 SOULHOL YVES E 102 6:51:19 BRONZE
619 1302 LAUNAY FRANÇOIS G 102 6:51:24 BRONZE
620 488 TABARI JEAN YVES I 63 6:51:34 ARGENT
621 1210 MARTINON JACKY G 103 6:54:32 BRONZE
622 760 JAMBART MICHEL F 110 6:55:07 BRONZE
623 529 GUIGNARD JOEL H 93 6:55:28 BRONZE
624 1850 LAFRIE TALAL D 112 6:55:31 BRONZE
625 787 BASTARD AIME I 64 6:55:35 ARGENT
626 715 DAOUD JOSEPH G 104 6:56:09 BRONZE
627 829 ROY PATRICK G 105 6:56:12 BRONZE
628 1111 CARUSO BRUNO E 103 6:56:21 BRONZE
629 1185 CHATEIGNER JEAN LUC F 111 6:56:23 BRONZE
630 1232 RONZY JACQUES H 94 6:56:24 BRONZE
631 1336 SIMONNET RENE I 65 6:56:38 ARGENT
632 497 GIRAL PHILIPPE E 104 6:57:45 BRONZE
633 881 SELLIER PIERRE I 66 6:58:52 ARGENT
634 296 BUIS GUY H 95 6:59:00 BRONZE
635 486 SOLIGNAT JEAN CLAUDE I 67 6:59:28 ARGENT
636 649 BRETON ALAIN G 106 6:59:40 BRONZE
637 1425 FOUCHEYRAND PIERRE F 112 7:00:06 BRONZE
638 1424 GARNIER GILLES H 96 7:00:08 BRONZE
639 1463 ROSNET PIERRE I 68 7:00:16 BRONZE
640 1445 KINKEAD WILLIAM I 69 7:00:21 BRONZE
641 1382 PETIOT CHRISTIAN G 107 7:01:28 BRONZE
642 1006 MAIRESSE ERIC D 113 7:01:30 BRONZE
643 592 DELORME PATRICE F 113 7:02:26 BRONZE
644 591 BOURDIER LAURENT F 114 7:02:27 BRONZE
645 996 FIALEYRE PHILIPPE F 115 7:03:00 BRONZE
646 323 SOLEILHAVOUP JEAN MARC H 97 7:03:04 BRONZE
647 1572 GEFFARD PATRICK E 105 7:03:07 BRONZE
648 1007 FLECHE RENÉ I 70 7:03:18 BRONZE
649 304 CATHALA HENRI I 71 7:03:32 BRONZE
650 362 PORCHERON PATRICE F 116 7:03:37 BRONZE
651 361 GROLLEAU JEAN PIERRE F 117 7:03:39 BRONZE
652 1550 PORCHERON ALEXANDRE C 25 7:03:40 BRONZE
653 204 NAU PIERRE 2 H 98 7:04:41 BRONZE
654 543 CHAMP FRANCOIS G 108 7:05:11 BRONZE
655 1669 RIGO MATHIEU D 114 7:05:56 BRONZE
656 1177 JOUBERT PHILIPPE 2 F 118 7:06:02 BRONZE
657 1173 DUSSELIN FRANCIS H 99 7:06:05 BRONZE
658 1806 PAPA ALAIN H 100 7:06:07 BRONZE
659 910 ZANKO ANTOINE I 72 7:06:09 BRONZE
660 1376 DROUIN GERARD X 0 7:06:50 BRONZE
661 1377 DROUIN NELLY X 0 7:06:51 BRONZE
662 1642 VAN MOURIK RENÉ E 106 7:07:15 BRONZE
663 1002 BUREAU MICHEL I 73 7:08:07 BRONZE
664 998 THUAIRE CHANTAL B 6 7:09:36 ARGENT
665 997 THUAIRE MICHEL H 101 7:09:37 BRONZE
666 1700 MORA CHRISTIAN G 109 7:09:41 BRONZE
667 1113 COUTANCEAU PHILIPPE F 119 7:09:44 BRONZE
668 1454 MAMETZ SEBASTIEN D 115 7:09:44 BRONZE
669 1156 FLAMANT DIDIER G 110 7:09:46 BRONZE
670 1477 CHIROUX CYRIL D 116 7:09:59 BRONZE
671 45 BRYON BERNARD I 74 7:10:36 BRONZE
672 801 THIBOUD JEAN LUC G 111 7:10:45 BRONZE
673 1577 CASSAGNES BERNARD F 120 7:14:29 BRONZE
674 1854 POLLIN BRUNO F 121 7:14:40 BRONZE
675 1417 TRISTANT GERARD I 75 7:15:40 BRONZE
676 1168 CESSAC PIERRE G 112 7:16:21 BRONZE
677 1456 ROTAT MARC H 102 7:17:02 BRONZE
678 896 AUBRY GERARD F 122 7:18:30 BRONZE
679 607 PIET EMMANUEL E 107 7:20:09 BRONZE
680 1431 SABOT ALAIN G 113 7:21:05 BRONZE
681 1482 JAMEY PASCAL F 123 7:21:13 BRONZE
682 650 LHENORET FRANCOIS H 103 7:21:32 BRONZE
683 219 SERIES JEAN CLAUDE I 76 7:24:27 BRONZE
684 1868 LOURET JEAN FRANCOIS H 104 7:25:29 BRONZE
685 1583 FOURGEAUD JEAN I 77 7:29:33 BRONZE
686 1533 GUTIERREZ JEAN MANUEL E 108 7:30:01 BRONZE
687 822 HENAULT DOMINIQUE G 114 7:33:26 BRONZE
688 1128 POTHELET SEBASTIEN D 117 7:36:44 BRONZE
689 1709 CLAUDEL ALAIN F 124 7:38:01 BRONZE
690 953 CORMIER VINCENT E 109 7:42:56 BRONZE
691 1341 MARCHADIER XAVIER E 110 7:46:53 BRONZE
692 606 PIET FREDERIC E 111 7:48:51 BRONZE
693 1030 GIBERT CHRISTIAN I 78 7:56:48 BRONZE
694 549 PASDELOUP PIERRE F 125 7:57:01 BRONZE
695 1510 DA COSTA LUIS F 126 7:57:43 BRONZE
696 1132 DUPONT YVES H 105 7:58:28 BRONZE
697 1631 MEUNIER JEAN PAUL G 115 7:59:28 BRONZE
698 901 GAIGEARD ANDRE I 79 8:01:43 BRONZE
699 505 MONCEAUX ALAIN I 80 8:02:40 BRONZE
700 1357 BECKER LEOPOLD Y 3 8:04:45 BRONZE
701 1651 DUPONT CHRISTOPHE D 118 8:07:02 BRONZE
702 1652 DUPONT NICOLAS D 119 8:07:05 BRONZE
703 352 CHARRET THIERRY F 127 8:07:47 BRONZE
704 1566 ROCHER DENIS H 106 8:12:07 BRONZE
705 952 DELAGE GUY H 107 8:16:22 BRONZE
706 948 BATISSE RENE H 108 8:16:22 BRONZE
707 1710 PALMIER BRIGITTE B 7 8:20:40 BRONZE
708 1711 PALMIER DENIS F 128 8:20:42 BRONZE
709 1694 FONTAINE CHRISTIAN I 81 8:29:25 BRONZE
710 1851 RIGOLLET GILLES I 82 8:31:51 BRONZE
711 330 SEYSSE JACQUES I 83 8:32:00 BRONZE
712 239 CHALCHAT BERNARD I 84 8:32:05 BRONZE

Haut 









Haut  
 Redaktion   Copyright Lesen: Hier klicken Um zu lesen !